Wind_Speed
15 14 16 16 15 14 10 8 8 7 6 5 4 5 5 5 5 5 5 5 4 4 3 4 3 4 6 9 11 14 16 18 18 16 13 12 11 11 15 14 11 11 11
16 17 17 18 19 19 19 18 15 14 13 13 11 10 9 9 8 8 8 7 7 7 7 7 7 8 9 11 14 15 17 19 19 18 16 14 12 10 12 16 14 14 13
20 22 21 20 21 24 24 24 24 23 21 19 19 18 17 16 15 14 13 12 12 11 11 12 12 12 13 14 16 19 21 22 21 20 18 16 14 13 14 17 18 18 18
28 27 28 29 29 25 28 29 29 29 29 28 27 25 24 24 23 21 21 20 19 18 17 16 16 16 18 19 20 22 23 25 25 25 21 20 18 16 15 18 23 23 22
38 36 33 33 36 35 34 32 33 34 35 35 35 34 31 30 28 29 29 27 26 26 26 26 26 25 24 25 26 26 27 29 29 28 27 24 22 20 20 21 23 26 29
44 43 46 43 39 42 44 41 37 34 41 41 40 40 39 38 35 36 36 35 35 34 32 32 33 33 31 31 31 31 32 32 32 32 31 26 23 21 21 23 24 27 31
53 49 49 48 49 51 49 47 45 43 40 42 43 44 42 42 43 44 42 40 40 40 40 41 39 39 39 37 37 36 35 35 35 35 34 30 26 23 23 24 27 28 30
61 59 58 57 58 55 58 55 52 51 48 46 41 42 44 43 49 47 44 45 45 42 44 43 43 45 44 43 42 40 39 39 38 39 38 35 32 29 25 24 26 30 32
73 72 71 70 69 65 62 63 63 60 56 53 52 46 45 45 49 49 48 46 46 43 46 46 44 44 45 45 45 44 42 41 41 41 43 40 38 35 33 32 32 32 33
83 82 80 79 77 76 69 68 72 69 65 63 60 56 53 53 48 49 50 52 52 48 48 46 45 44 43 45 47 47 45 41 41 43 45 42 42 40 40 39 36 36 35
84 87 86 85 80 79 79 78 81 77 72 72 71 67 60 59 60 56 55 52 51 51 48 44 44 44 45 47 47 48 48 45 46 44 42 45 44 44 43 40 41 42 39
92 92 88 86 86 83 79 78 79 83 82 79 75 77 72 67 67 65 59 59 50 52 51 47 45 46 48 47 49 49 50 48 48 48 44 46 50 52 51 47 44 43 43
99 97 97 96 93 93 92 87 85 82 83 86 84 80 78 75 76 74 67 64 62 57 57 54 54 54 52 53 53 56 55 53 54 55 55 56 59 63 63 61 58 50 54
106 108 108 107 104 102 99 96 92 77 70 84 83 84 83 79 77 74 76 76 71 67 64 58 60 59 61 61 60 60 59 61 62 62 62 64 66 66 65 64 63 57 59
106 107 108 111 111 110 106 105 101 93 62 79 91 85 84 82 82 80 75 76 73 73 67 68 68 67 67 68 68 68 66 67 67 66 69 68 71 71 71 68 65 61 64
97 101 105 106 108 110 109 110 112 108 106 109 102 102 88 87 88 81 81 83 80 73 68 67 66 68 71 71 72 73 73 75 76 74 76 76 76 74 70 69 70 72 74
85 88 90 94 99 102 106 110 112 116 116 113 108 108 89 89 89 86 84 84 82 81 76 73 71 73 74 77 78 79 81 83 86 84 82 82 82 80 77 76 77 80 84
75 74 77 82 86 92 99 102 107 112 121 121 121 113 106 102 97 92 86 89 79 75 70 72 75 78 77 74 72 75 73 73 77 85 87 84 84 87 86 89 89 89 88
70 70 70 73 77 83 89 94 98 105 112 119 128 124 121 119 110 101 95 84 94 89 93 65 53 74 71 71 77 78 72 76 72 77 89 90 92 89 89 91 89 88 90
73 72 69 70 71 74 81 87 91 95 102 110 119 127 126 128 121 109 100 94 93 88 86 83 82 74 75 72 75 74 86 83 82 81 79 77 87 90 94 95 98 101 95
72 74 73 69 67 68 72 79 83 89 95 102 109 116 125 129 127 124 128 124 111 103 93 84 89 75 75 79 85 68 68 75 92 100 77 80 93 97 96 104 97 98 100
70 74 77 77 77 74 68 69 74 81 88 94 102 108 115 125 129 129 127 128 123 120 106 85 80 75 68 70 81 71 51 77 87 101 84 98 90 87 88 93 95 92 98
71 74 78 81 84 80 73 67 70 72 79 86 93 103 110 115 124 130 130 117 117 116 112 97 91 84 80 82 78 73 60 65 88 106 105 110 97 109 110 102 106 103 101
70 74 77 80 84 86 81 72 65 69 74 80 86 93 103 112 117 123 129 128 127 126 121 117 102 86 85 90 82 88 83 74 92 104 107 102 106 117 113 104 103 103 95
72 75 79 79 80 84 82 72 64 61 69 74 79 86 93 102 111 115 122 131 142 145 140 129 127 121 111 102 99 94 97 91 99 114 121 121 115 102 102 95 98 103 103
75 77 80 79 78 79 79 74 62 56 60 67 73 79 85 91 99 108 114 122 130 140 144 141 134 131 131 124 114 106 101 94 106 107 107 92 97 99 108 102 101 103 102
Wind_Direction
290 276 276 285 288 291 286 269 260 257 249 236 228 222 213 212 209 206 205 213 220 241 255 283 314 337 345 348 347 349 346 345 347 340 328 313 292 271 247 247 256 272 286
290 289 282 272 271 274 277 280 272 264 265 265 262 255 253 252 248 245 244 249 254 262 272 291 306 318 324 327 332 334 340 339 339 339 335 326 313 285 253 245 252 262 267
269 283 288 276 274 270 269 268 273 274 269 260 259 264 264 265 269 262 260 264 269 278 288 295 300 308 310 312 317 321 326 330 334 335 331 323 311 300 277 260 264 268 274
265 267 274 281 286 269 269 269 269 268 272 274 272 267 263 262 267 270 270 274 275 278 279 284 288 294 301 306 310 313 318 320 322 323 321 317 306 295 292 277 275 275 274
261 261 264 267 281 277 280 278 270 267 267 265 269 272 273 271 270 273 272 270 272 275 280 282 283 286 291 295 300 306 310 313 315 317 317 314 307 296 287 281 280 277 276
274 271 268 262 262 271 273 278 277 280 267 260 260 262 264 269 273 273 273 273 273 274 276 277 280 283 287 291 294 297 301 306 309 310 308 307 305 297 289 282 281 280 281
273 269 269 270 272 268 263 269 270 272 275 271 264 260 262 261 263 266 268 270 274 276 278 275 276 276 279 284 287 290 292 297 301 301 300 300 299 297 294 293 289 286 284
271 270 271 272 272 272 267 260 261 264 268 270 267 266 264 264 259 260 265 269 269 271 274 275 276 276 275 276 281 283 285 289 293 295 297 296 293 292 287 286 288 289 289
272 272 270 271 272 272 268 267 258 256 256 261 263 263 262 264 264 263 261 260 263 264 266 268 271 274 274 275 275 278 279 284 289 289 293 290 287 284 283 282 282 282 287
276 274 272 271 271 271 267 266 263 260 259 255 257 256 255 262 266 265 263 261 256 257 260 265 269 273 276 273 273 276 278 279 280 282 286 282 282 283 282 280 287 285 286
270 273 273 272 272 268 268 265 261 261 260 258 256 256 250 252 262 265 267 262 262 255 260 264 267 269 269 271 274 275 276 276 277 276 275 279 287 289 290 292 294 282 280
269 267 265 267 267 264 264 262 259 257 257 257 259 256 254 253 254 258 259 263 259 257 258 267 270 272 272 273 272 274 276 274 275 274 279 281 284 285 285 287 288 290 292
268 267 263 261 262 263 264 261 259 258 258 258 259 256 252 251 255 256 255 255 257 256 259 264 265 264 269 272 274 276 278 277 277 276 277 279 281 284 288 289 291 285 282
267 265 264 261 258 259 260 261 260 257 267 258 254 256 254 254 253 255 253 253 255 255 257 256 260 265 269 270 269 270 274 276 278 279 280 280 282 284 286 289 291 286 282
269 267 266 264 261 258 254 255 257 252 236 248 260 252 251 253 252 251 253 254 255 258 260 260 263 267 267 266 269 274 276 277 275 275 273 274 278 279 284 285 285 279 281
269 269 268 267 264 261 257 253 251 251 248 248 249 251 252 249 252 253 255 255 252 250 250 261 263 265 267 269 270 271 273 274 277 277 279 279 279 281 282 282 276 276 279
273 272 270 268 267 264 260 257 251 248 248 248 247 250 249 251 247 251 254 254 254 254 251 249 259 265 266 268 272 274 273 273 276 279 279 279 281 280 278 277 273 273 276
280 278 273 270 268 265 263 258 255 251 247 245 248 246 243 243 245 247 245 251 248 251 267 253 254 262 267 270 274 278 280 282 280 278 275 272 274 277 277 276 276 277 279
284 283 281 278 272 268 264 262 258 253 249 246 245 246 244 243 244 244 246 247 251 251 250 243 245 248 251 267 271 276 280 281 279 285 283 275 274 275 278 277 277 277 278
290 288 285 283 279 273 268 265 261 256 252 249 245 244 244 244 241 239 233 232 239 243 244 239 241 243 245 250 259 262 277 282 274 280 279 274 276 271 272 277 276 276 281
291 293 292 290 286 283 276 269 265 259 254 251 249 245 243 243 242 239 240 240 243 242 245 235 236 236 241 240 248 253 257 266 265 276 276 278 276 272 275 274 274 275 279
293 294 294 295 293 292 287 280 270 264 258 253 249 247 244 242 241 242 240 241 244 240 238 235 224 226 232 232 242 258 261 273 261 261 274 272 264 266 267 267 270 272 276
298 298 297 297 298 296 295 290 281 270 261 256 251 247 245 243 242 240 240 240 226 229 236 234 229 226 232 236 243 245 243 236 246 242 259 266 267 266 266 271 267 271 272
299 299 298 297 297 297 297 296 287 275 266 258 253 249 246 244 242 241 238 234 230 232 234 236 231 231 236 241 242 241 244 243 239 243 260 258 262 264 265 266 269 267 270
303 303 301 300 299 299 298 297 292 278 268 262 256 252 249 246 244 242 240 237 237 238 241 239 233 236 240 243 244 246 241 249 244 248 253 254 256 260 261 263 265 267 269
306 306 305 304 303 302 301 300 295 282 272 265 259 255 251 249 246 244 242 241 239 240 240 239 239 239 238 238 243 244 243 247 247 244 243 244 248 256 261 260 263 266 267
Height
10885 10884 10885 10885 10886 10886 10885 10884 10884 10883 10882 10881 10881 10880 10880 10879 10878 10877 10876 10875 10874 10873 10872 10871 10869 10868 10866 10864 10863 10861 10859 10856 10852 10848 10845 10844 10842 10841 10841 10841 10841 10840 10838
10881 10881 10880 10880 10881 10882 10882 10882 10881 10880 10880 10879 10879 10878 10878 10877 10877 10876 10875 10874 10872 10871 10870 10869 10867 10866 10864 10862 10860 10859 10856 10853 10850 10847 10844 10841 10839 10838 10837 10836 10835 10834 10832
10878 10877 10876 10876 10876 10876 10876 10876 10877 10877 10877 10876 10876 10875 10875 10874 10874 10873 10872 10871 10870 10869 10867 10866 10864 10863 10861 10859 10857 10855 10853 10851 10848 10845 10842 10840 10837 10835 10834 10833 10831 10829 10828
10873 10872 10872 10871 10871 10870 10871 10870 10870 10870 10870 10870 10870 10869 10869 10868 10868 10868 10868 10867 10866 10865 10864 10862 10861 10859 10857 10856 10854 10851 10849 10847 10844 10842 10839 10836 10834 10831 10830 10829 10828 10826 10824
10868 10867 10867 10867 10866 10866 10865 10865 10864 10863 10863 10862 10862 10862 10861 10861 10861 10860 10860 10860 10860 10859 10858 10856 10855 10854 10852 10850 10849 10847 10845 10843 10840 10838 10835 10832 10829 10827 10824 10822 10821 10819 10817
10858 10859 10859 10859 10860 10859 10858 10858 10857 10856 10854 10853 10853 10853 10853 10853 10854 10852 10850 10850 10850 10850 10850 10849 10848 10847 10845 10844 10843 10841 10839 10837 10835 10832 10829 10826 10823 10820 10818 10816 10814 10812 10810
10842 10846 10846 10848 10851 10850 10849 10849 10848 10847 10846 10845 10847 10843 10844 10844 10844 10842 10842 10842 10841 10840 10840 10839 10840 10839 10838 10837 10835 10834 10833 10831 10829 10826 10823 10820 10818 10815 10812 10809 10807 10804 10801
10830 10830 10831 10833 10835 10837 10838 10837 10838 10836 10835 10835 10837 10835 10834 10835 10829 10829 10833 10833 10832 10832 10830 10829 10829 10827 10827 10827 10826 10825 10825 10823 10821 10818 10816 10813 10811 10809 10806 10803 10800 10797 10794
10812 10815 10816 10816 10817 10819 10820 10820 10821 10822 10822 10822 10823 10825 10823 10821 10819 10818 10819 10820 10820 10821 10818 10817 10818 10816 10815 10815 10814 10814 10814 10814 10812 10810 10807 10805 10803 10800 10797 10795 10792 10788 10785
10787 10789 10793 10797 10798 10799 10802 10801 10802 10805 10807 10807 10806 10810 10811 10807 10807 10807 10806 10806 10805 10807 10806 10807 10807 10807 10806 10804 10803 10802 10803 10803 10802 10799 10797 10795 10793 10792 10791 10788 10785 10781 10777
10767 10764 10765 10767 10773 10776 10777 10780 10781 10784 10787 10791 10787 10789 10793 10793 10792 10795 10792 10793 10794 10793 10794 10794 10795 10795 10793 10792 10792 10791 10790 10790 10789 10789 10788 10785 10783 10780 10779 10778 10776 10773 10768
10743 10745 10747 10745 10745 10749 10752 10754 10758 10761 10764 10768 10770 10771 10774 10775 10774 10775 10778 10775 10782 10781 10779 10783 10783 10782 10779 10779 10778 10777 10777 10778 10777 10775 10775 10773 10771 10769 10767 10765 10764 10762 10758
10714 10714 10720 10721 10722 10722 10724 10731 10733 10738 10741 10744 10749 10751 10752 10757 10755 10756 10762 10763 10761 10765 10768 10770 10768 10764 10764 10762 10763 10762 10762 10764 10765 10764 10762 10760 10757 10754 10751 10749 10748 10746 10743
10680 10680 10682 10687 10692 10696 10700 10700 10708 10715 10716 10715 10723 10726 10729 10734 10734 10736 10741 10742 10745 10749 10748 10758 10750 10751 10748 10746 10747 10746 10748 10747 10747 10747 10749 10747 10743 10741 10737 10734 10731 10727 10722
10647 10645 10647 10649 10654 10659 10668 10672 10679 10690 10691 10685 10696 10702 10704 10709 10710 10714 10717 10720 10724 10732 10739 10738 10738 10734 10733 10731 10731 10727 10729 10728 10729 10733 10733 10734 10732 10730 10726 10722 10717 10711 10707
10618 10615 10613 10614 10616 10620 10627 10635 10642 10652 10660 10663 10671 10671 10678 10681 10687 10689 10692 10696 10700 10710 10721 10716 10717 10713 10711 10715 10717 10717 10718 10715 10710 10713 10713 10713 10714 10715 10713 10708 10701 10696 10693
10591 10588 10586 10583 10581 10582 10585 10592 10602 10613 10619 10625 10632 10640 10651 10652 10661 10664 10668 10670 10674 10680 10696 10707 10697 10691 10691 10689 10691 10697 10701 10701 10697 10692 10691 10691 10689 10691 10694 10689 10682 10676 10675
10565 10562 10559 10555 10553 10549 10547 10552 10560 10569 10577 10587 10590 10602 10617 10615 10628 10643 10645 10642 10649 10656 10671 10679 10682 10675 10673 10671 10670 10671 10674 10678 10679 10675 10670 10667 10669 10668 10668 10665 10661 10659 10655
10543 10539 10534 10529 10525 10521 10518 10516 10524 10530 10535 10544 10550 10561 10573 10584 10601 10610 10610 10620 10619 10630 10641 10649 10648 10646 10652 10653 10654 10657 10660 10659 10658 10655 10650 10647 10645 10644 10641 10637 10637 10636 10635
10519 10514 10511 10503 10498 10495 10490 10489 10491 10495 10500 10505 10510 10519 10531 10542 10561 10574 10577 10576 10583 10594 10605 10615 10618 10626 10627 10628 10627 10629 10635 10640 10634 10633 10630 10629 10624 10621 10619 10617 10614 10607 10614
10499 10491 10484 10479 10474 10469 10463 10461 10462 10463 10467 10470 10473 10481 10491 10500 10513 10533 10543 10549 10555 10568 10579 10582 10590 10596 10603 10604 10610 10609 10609 10614 10609 10605 10606 10607 10601 10599 10600 10597 10586 10585 10590
10480 10472 10464 10456 10448 10441 10439 10435 10433 10433 10433 10436 10440 10445 10453 10462 10472 10487 10502 10515 10525 10539 10550 10557 10564 10571 10574 10580 10587 10586 10588 10597 10592 10582 10580 10578 10570 10573 10572 10573 10565 10563 10566
10459 10449 10441 10431 10421 10414 10412 10411 10406 10403 10401 10401 10405 10410 10417 10427 10437 10449 10465 10479 10488 10501 10517 10532 10539 10542 10551 10557 10567 10571 10568 10565 10569 10559 10557 10549 10553 10547 10547 10549 10543 10545 10545
10444 10431 10421 10411 10399 10390 10386 10382 10377 10372 10369 10368 10371 10376 10382 10389 10400 10413 10429 10442 10455 10464 10472 10499 10512 10517 10523 10533 10540 10543 10546 10545 10543 10542 10530 10526 10525 10525 10518 10522 10519 10519 10519
10424 10411 10398 10391 10379 10366 10358 10353 10350 10344 10339 10338 10341 10344 10349 10356 10366 10380 10398 10407 10417 10423 10434 10456 10472 10483 10492 10502 10512 10515 10520 10516 10518 10513 10507 10505 10506 10503 10497 10494 10495 10494 10497
10405 10391 10374 10366 10358 10344 10333 10325 10321 10319 10314 10312 10311 10313 10319 10327 10332 10342 10355 10370 10383 10386 10394 10411 10431 10447 10461 10465 10481 10489 10490 10492 10484 10484 10480 10487 10477 10474 10477 10473 10470 10471 10470